2023/01/31 00:00:00,39.2,-1.8
2023/01/31 00:10:00,39.2,-1.8
2023/01/31 00:20:00,39.2,-1.8
2023/01/31 00:30:00,39.2,-2.0
2023/01/31 00:40:00,39.2,-1.9
2023/01/31 00:50:00,39.1,-2.0
2023/01/31 01:00:00,39.0,-2.4
2023/01/31 01:10:00,39.0,-2.2
2023/01/31 01:20:00,39.1,-2.1
2023/01/31 01:30:00,39.1,-2.2
2023/01/31 01:40:00,39.0,-2.2
2023/01/31 01:50:00,38.9,-2.0
2023/01/31 02:00:00,38.8,-2.1
2023/01/31 02:10:00,38.7,-2.0
2023/01/31 02:20:00,38.6,-2.0
2023/01/31 02:30:00,38.6,-2.0
2023/01/31 02:40:00,38.7,-2.2
2023/01/31 02:50:00,38.8,-2.1
2023/01/31 03:00:00,38.9,-2.1
2023/01/31 03:10:00,38.9,-2.1
2023/01/31 03:20:00,38.9,-2.1
2023/01/31 03:30:00,38.8,-2.1
2023/01/31 03:40:00,38.8,-2.4
2023/01/31 03:50:00,38.7,-2.0
2023/01/31 04:00:00,38.7,-2.2
2023/01/31 04:10:00,38.7,-2.0
2023/01/31 04:20:00,38.7,-2.2
2023/01/31 04:30:00,38.7,-2.1
2023/01/31 04:40:00,38.6,-2.5
2023/01/31 04:50:00,38.6,-1.9
2023/01/31 05:00:00,38.6,-1.9
2023/01/31 05:10:00,38.6,-2.1
2023/01/31 05:20:00,38.5,-2.0
2023/01/31 05:30:00,38.4,-2.1
2023/01/31 05:40:00,38.3,-2.1
2023/01/31 05:50:00,38.2,-1.9
2023/01/31 06:00:00,38.2,-2.2
2023/01/31 06:10:00,38.3,-2.2
2023/01/31 06:20:00,38.2,-1.9
2023/01/31 06:30:00,38.2,-2.2
2023/01/31 06:40:00,38.2,-2.6
2023/01/31 06:50:00,38.4,-2.8
2023/01/31 07:00:00,38.3,-3.6
2023/01/31 07:10:00,38.3,-3.5
2023/01/31 07:20:00,38.3,-3.9
2023/01/31 07:30:00,38.3,-3.4
2023/01/31 07:40:00,38.2,-2.9
2023/01/31 07:50:00,38.2,-2.5
2023/01/31 08:00:00,38.2,-2.4
2023/01/31 08:10:00,38.2,-2.5
2023/01/31 08:20:00,38.2,-2.2
2023/01/31 08:30:00,38.2,-1.9
2023/01/31 08:40:00,38.2,-1.4
2023/01/31 08:50:00,38.2,-0.4
2023/01/31 09:00:00,38.2,-1.2
2023/01/31 09:10:00,38.2,-1.6
2023/01/31 09:20:00,38.2,-1.2
2023/01/31 09:30:00,38.0, 1.0
2023/01/31 09:40:00,37.9, 2.0
2023/01/31 09:50:00,37.7, 2.4
2023/01/31 10:00:00,37.6, 3.4
2023/01/31 10:10:00,37.6, 3.9
2023/01/31 10:20:00,37.4, 4.4
2023/01/31 10:30:00,37.3, 6.0
2023/01/31 10:40:00,37.2, 5.9
2023/01/31 10:50:00,36.9, 6.3
2023/01/31 11:00:00,36.8, 7.6
2023/01/31 11:10:00,36.6, 7.5
2023/01/31 11:20:00,36.1, 6.5
2023/01/31 11:30:00,35.9, 5.7
2023/01/31 11:40:00,35.8, 5.2
2023/01/31 11:50:00,35.7, 7.9
2023/01/31 12:00:00,35.2, 6.9
2023/01/31 12:10:00,34.8, 5.1
2023/01/31 12:20:00,34.7, 4.6
2023/01/31 12:30:00,34.6, 5.2
2023/01/31 12:40:00,34.5, 5.5
2023/01/31 12:50:00,34.3, 4.2
2023/01/31 13:00:00,34.1, 4.9
2023/01/31 13:10:00,33.9, 6.2
2023/01/31 13:20:00,33.7, 6.0
2023/01/31 13:30:00,33.6, 5.3
2023/01/31 13:40:00,33.4, 9.4
2023/01/31 13:50:00,33.4, 8.9
2023/01/31 14:00:00,33.0, 9.2
2023/01/31 14:10:00,32.6, 9.2
2023/01/31 14:20:00,32.6, 9.1
2023/01/31 14:30:00,32.4, 9.9
2023/01/31 14:40:00,32.2,10.2
2023/01/31 14:50:00,31.9, 7.4
2023/01/31 15:00:00,31.7, 5.1
2023/01/31 15:10:00,31.4, 6.2
2023/01/31 15:20:00,31.4, 5.4
2023/01/31 15:30:00,31.2, 4.0
2023/01/31 15:40:00,31.0, 3.8
2023/01/31 15:50:00,31.0, 5.7
2023/01/31 16:00:00,30.9,10.0
2023/01/31 16:10:00,30.8,11.1
2023/01/31 16:20:00,30.8, 4.3
2023/01/31 16:30:00,30.7, 2.5
2023/01/31 16:40:00,30.6, 2.6
2023/01/31 16:50:00,30.4, 2.2
2023/01/31 17:00:00,30.2, 2.1
2023/01/31 17:10:00,30.0, 1.2
2023/01/31 17:20:00,30.0, 1.0
2023/01/31 17:30:00,30.0, 0.3
2023/01/31 17:40:00,30.1, 0.0
2023/01/31 17:50:00,30.2,-0.4
2023/01/31 18:00:00,30.4,-0.4
2023/01/31 18:10:00,30.4,-0.5
2023/01/31 18:20:00,30.3,-0.5
2023/01/31 18:30:00,30.3,-0.3
2023/01/31 18:40:00,30.3,-0.4
2023/01/31 18:50:00,30.3,-0.2
2023/01/31 19:00:00,30.2,-0.3
2023/01/31 19:10:00,30.1,-0.5
2023/01/31 19:20:00,30.1,-0.7
2023/01/31 19:30:00,30.0,-0.7
2023/01/31 19:40:00,30.0,-0.7
2023/01/31 19:50:00,30.0,-0.8
2023/01/31 20:00:00,30.0,-1.1
2023/01/31 20:10:00,30.0,-1.0
2023/01/31 20:20:00,30.0,-1.2
2023/01/31 20:30:00,29.9,-1.2
2023/01/31 20:40:00,29.8,-1.1
2023/01/31 20:50:00,29.8,-1.3
2023/01/31 21:00:00,29.8,-1.5
2023/01/31 21:10:00,29.8,-1.5
2023/01/31 21:20:00,29.8,-1.5
2023/01/31 21:30:00,29.8,-1.4
2023/01/31 21:40:00,29.9,-1.6
2023/01/31 21:50:00,29.7,-1.7
2023/01/31 22:00:00,29.5,-1.4
2023/01/31 22:10:00,29.5,-2.0
2023/01/31 22:20:00,29.5,-2.3
2023/01/31 22:30:00,29.4,-2.4
2023/01/31 22:40:00,29.4,-2.4
2023/01/31 22:50:00,29.5,-2.4
2023/01/31 23:00:00,29.5,-2.5
2023/01/31 23:10:00,29.5,-2.6
2023/01/31 23:20:00,29.5,-2.9
2023/01/31 23:30:00,29.5,-3.0
2023/01/31 23:40:00,29.5,-3.2
2023/01/31 23:50:00,29.5,-2.9
